Skip Page Navigation
NASA JPL Caltech
NASA Logo - Jet Propulsion Laboratory + View the NASA Portal
+ Center for Near-Earth Object Studies
JPL Home Earth Solar System Stars & Galaxies Technology
JPL Solar System Dynamics
BODIES ORBITS EPHEMERIDES TOOLS PHYSICAL DATA DISCOVERY FAQ SITE MAP
JPL Small-Body Database Browser
Search: [ help ]  
382937 (2004 TK175)
Classification: Main-belt Asteroid          SPK-ID: 2382937
Ephemeris | Orbit Diagram | Orbital Elements | Mission Design | Physical Parameters | Discovery Circumstances ]

[ show orbit diagram ]
Orbital Elements at Epoch 2459000.5 (2020-May-31.0) TDB
Reference: JPL 13 (heliocentric ecliptic J2000)
 Element Value Uncertainty (1-sigma)   Units 
e .2191218492167152 1.7476e-07  
a 2.631455985160907 3.1435e-08 au
q 2.054846483560056 4.4767e-07 au
i 14.30650353877786 1.2265e-05 deg
node 30.67692955102446 3.3402e-05 deg
peri 352.2094928829842 3.8713e-05 deg
M 240.7887053904957 3.314e-05 deg
tp 2459516.806384904472
(2021-Oct-29.30638490)
0.00015145 TDB
period 1559.16684886661
4.27
2.7939e-05
7.649e-08
d
yr
n .2308925438362747 4.1374e-09 deg/d
Q 3.208065486761759 3.8324e-08 au
  Orbit Determination Parameters
   # obs. used (total)      127  
   data-arc span      5254 days (14.38 yr)  
   first obs. used      2004-09-17  
   last obs. used      2019-02-05  
   planetary ephem.      DE431  
   SB-pert. ephem.      SB431-N16  
   condition code      0  
   norm. resid. RMS      .62747  
   source      ORB  
   producer      Otto Matic  
   solution date      2019-Jul-13 19:11:27  

Additional Information
 Earth MOID = 1.05971 au 
 Jupiter MOID = 2.24841 au 
 T_jup = 3.322 
[ show covariance matrix ]

Ephemeris | Orbit Diagram | Orbital Elements | Mission Design | Physical Parameters | Discovery Circumstances ]

Physical Parameter Table
Parameter Symbol Value Units Sigma Reference Notes
absolute magnitude H 16.6   n/a MPO434374  

382937 (2004 TK175)          Discovered 2004-Oct-09 by LINEAR at Socorro
Reference: Last Updated: 2014-01-21
Ephemeris | Orbit Diagram | Orbital Elements | Mission Design | Physical Parameters | Discovery Circumstances ]
ABOUT SSD CREDITS/AWARDS PRIVACY/COPYRIGHT GLOSSARY LINKS
FirstGov 2020-Oct-25 09:55 UT
(server date/time)  
NASA Home Page
Site Manager:   Ryan S. Park
Webmaster  Alan B. Chamberlin